Regional Weather Roundup
Issued by NWS

Home | Current Version | Previous Version | Graphics & Text | Print | Product List | Glossary On
Versions: 1 2 3 4 5 6 7 8 9 10 11 12 13 14 15 16 17 18 19 20 21 22 23 24 25 26 27 28 29 30 31 32 33 34 35 36 37 38 39 40 41 42 43 44 45 46 47 48 49 50
000
ASUS43 KMKX 190600
RWRWI

WISCONSIN REGIONAL WEATHER ROUNDUP
NATIONAL WEATHER SERVICE MILWAUKEE/SULLIVAN WI
100 AM CDT SUN APR 19 2015

NOTE: "FAIR" INDICATES FEW OR NO CLOUDS BELOW 12,000 FEET WITH NO
SIGNIFICANT WEATHER AND/OR OBSTRUCTIONS TO VISIBILITY.

WIZ001-002-006>008-014>016-023>028-190700-
NORTHWEST WISCONSIN

CITY           SKY/WX    TMP DP  RH WIND       PRES   REMARKS
SUPERIOR ARPT  CLOUDY    38  32  79 E12G22    29.99F WCI  30
ASHLAND        CLOUDY    37  34  89 W3        30.00S
6HR MIN TEMP:  32; 6HR MAX TEMP:  40;

HAYWARD        LGT RAIN  54  15  21 SE9       29.95F
6HR MIN TEMP:  47; 6HR MAX TEMP:  56; 6HR PCP: TRACE;

SIREN          LGT RAIN  55  29  37 SE13      29.94S
CUMBERLAND     DRIZZLE   50  21  32 SE16G24   29.96S
RICE LAKE      RAIN      53  22  29 SE15      29.99R
CHETEK         LGT RAIN  51  28  41 SE7G17    29.98R
LADYSMITH      MOCLDY    53  14  21 E12       29.98F
EAU CLAIRE     NOT AVBL
MENOMONIE      LGT RAIN  50  36  58 E6        29.96F
NEW RICHMOND   LGT RAIN  48  40  73 E7        29.93F
OSCEOLA        RAIN      49  42  78 SE13      29.95F
$$

WIZ003>005-009-010-017-018-190700-
NORTH CENTRAL WISCONSIN

CITY           SKY/WX    TMP DP  RH WIND       PRES   REMARKS
MANITOWISH WTR MOCLDY    48  18  30 E10G17    30.02S
ARBOR VITAE    HAZE      49  20  30 SE15G21   30.02F VSB 1/2
WOODRUFF       HAZE      49  20  30 SE15G21   30.02F VSB 1/2
RHINELANDER    FAIR      46  23  40 E17G24    30.03F
6HR MIN TEMP:  46; 6HR MAX TEMP:  58;

EAGLE RIVER    FAIR      44  25  46 SE10      30.04F
LAND O LAKES   FAIR      44  28  54 SE8       30.06S
PHILLIPS       MOCLDY    50  12  22 SE12G18   29.99F
TOMAHAWK       FAIR      48  15  27 CALM      30.02F
MEDFORD        MOCLDY    47  19  32 E10G20    29.98F
MERRILL        FAIR      48  21  34 E10G16    30.01F
$$

WIZ029-030-035-036-043>047-190700-
CENTRAL WISCONSIN

CITY           SKY/WX    TMP DP  RH WIND       PRES   REMARKS
WAUSAU         MOCLDY    48  21  34 E17G26    29.99F
6HR MIN TEMP:  48; 6HR MAX TEMP:  57;

MOSINEE        FAIR      46  21  36 E16G22    30.01F
MARSHFIELD     FAIR      48  23  37 E14       29.96F
6HR MIN TEMP:  48; 6HR MAX TEMP:  59;

STEVENS POINT  FAIR      45  22  40 E16G22    30.00F
WAUPACA        FAIR      48  27  44 NE5       30.03F
WAUTOMA        NOT AVBL
WISC RAPIDS    FAIR      48  22  35 E13G18    29.99F
6HR MIN TEMP:  48; 6HR MAX TEMP:  60;

CAMP DOUGLAS   NOT AVBL
$$

WIZ011>013-019>022-031-037>040-048>050-190700-
NORTHEAST WISCONSIN

CITY           SKY/WX    TMP DP  RH WIND       PRES   REMARKS
ANTIGO         FAIR      44  25  46 E20G28    30.03F
SHAWANO        FAIR      46  30  53 E12       30.06F
OCONTO         FAIR      44  32  64 E6        30.08S
STURGEON BAY   FAIR      45  28  53 SE13      30.10F
6HR MIN TEMP:  43; 6HR MAX TEMP:  54;

GREEN BAY      FAIR      44  30  57 NE7       30.04F
6HR MIN TEMP:  44; 6HR MAX TEMP:  52;

MANITOWOC      NOT AVBL
APPLETON       FAIR      45  27  49 E7        30.03F
CLINTONVILLE   FAIR      43  27  52 E8        30.05F
OSHKOSH        FAIR      48  31  51 E7        30.00F
6HR MIN TEMP:  48; 6HR MAX TEMP:  56;

$$

WIZ032>034-041-042-053>061-190700-
SOUTHWEST WISCONSIN

CITY           SKY/WX    TMP DP  RH WIND       PRES   REMARKS
LA CROSSE      LGT RAIN  58  32  37 SE9       29.96R
6HR MIN TEMP:  58; 6HR MAX TEMP:  68; 6HR PCP: TRACE;

SPARTA         MOCLDY    47  36  63 E8        29.95F
VIROQUA        CLOUDY    53  29  39 SW7       29.95R
BOSCOBEL       CLOUDY    56  31  38 N5        29.94R
6HR MIN TEMP:  56; 6HR MAX TEMP:  68; 6HR PCP: TRACE;

PRAIRIE DU CHI MOCLDY    61  31  32 SE6       29.92F
PLATTEVILLE    CLOUDY    55  32  41 E15       29.92F
$$

WIZ056-057-062-063-064-067-068-190700-
SOUTH CENTRAL WISCONSIN

CITY           SKY/WX    TMP DP  RH WIND       PRES   REMARKS
REEDSBURG      FAIR      49  29  46 E9        29.95F
BARABOO/DELLS  FAIR      47  27  46 E9        29.97S
LONE ROCK      NOT AVBL
MINERAL POINT  FAIR      55  28  35 E12       29.93S
MADISON        MOCLDY    50  30  46 E7        29.96F
6HR MIN TEMP:  49; 6HR MAX TEMP:  63;

MIDDLETON      MOCLDY    51  30  44 E9        29.96F
WATERTOWN      FAIR      52  28  40 E15       29.96F
MONROE         CLOUDY    50  34  53 E9G17     29.93S
JANESVILLE     FAIR      52  30  43 E8        29.95S
$$

WIZ051-052-058>065-066-070>072-190700-
SOUTHEAST WISCONSIN

CITY           SKY/WX    TMP DP  RH WIND       PRES   REMARKS
MILWAUKEE      FAIR      46  30  53 E10       30.01F
6HR MIN TEMP:  41; 6HR MAX TEMP:  46;

WAUKESHA       FAIR      46  28  49 E8        30.01F
MILWAUKEE/TIMM FAIR      46  27  46 E7        30.02F
RACINE         MOCLDY    47  32  56 E15       30.01F
6HR MIN TEMP:  41; 6HR MAX TEMP:  48;

BURLINGTON     FAIR      46  31  56 E3        29.99R
KENOSHA        MOCLDY    50  32  50 E12       30.00S
6HR MIN TEMP:  43; 6HR MAX TEMP:  50;

FOND DU LAC    FAIR      52  20  28 SE10G20   29.99F
6HR MIN TEMP:  45; 6HR MAX TEMP:  59;

SHEBOYGAN      FAIR      40  31  70 NE5       30.03F
6HR MIN TEMP:  36; 6HR MAX TEMP:  49;

WEST BEND      FAIR      43  27  52 NE7       30.01F
JUNEAU         FAIR      51  25  36 E16       29.98F
$$

LSZ147-162-190700-
LAKE SUPERIOR

STATION/POSITION TIME  TEMP    WIND        PRES    WAVE
                       AIR SEA DIR/SP/G            HT/PER
                 (UTC) (F)     (DEG/KT/KT) (MB)    (FT/S)
DEVILS ISLAND    0500   39      70/ 12/ 13 1016.9F
PORT WING        0540   38      40/ 11/ 13 1015.9F
SAXON HARBOR     0540   39        CALM     1015.2F
$$

LMZ867-665-643>646-190700-
LAKE MICHIGAN

STATION/POSITION TIME  TEMP    WIND        PRES    WAVE
                       AIR SEA DIR/SP/G            HT/PER
                 (UTC) (F)     (DEG/KT/KT) (MB)    (FT/S)
CHAMBERS ISLAND  0500   44      50/  9/ 11 1019.3F
NORTHPORT PIER   0500   41      80/ 11/ 14 1019.6F
SISTER BAY       0532   43     130/ 12/ 16   N/A
KEWAUNEE LAKESHO 0500   41      70/  5/  8 1018.2R
SHEBOYGAN LAKESH 0500   44      10/  7/  8 1018.3F
PORT WASHINGTON  0500   48      40/  7/  8 1017.9F
MILWAUKEE LAKESH 0500   46      30/  9/  9   N/A
KENOSHA   LAKESH 0500   47      50/  6/  9 1015.9F
$$

TC  - TEMPERATURE IN CELSIUS
VSB - VISIBILITY IN STATUTE MILES
WCI - WIND CHILL INDEX
HX  - HEAT INDEX



USA.gov is the U.S. government's official web portal to all federal, state and local government web resources and services.